{"data":{"norad_id":59438,"epoch":"2026-05-25T02:56:05.436960Z","epoch_age_seconds":58252,"freshness":"FRESH","line1":"1 59438U 24065T   26145.12228515  .00003802  00000+0  14050-3 0  9995","line2":"2 59438  53.1612 286.5033 0000903 153.8830 206.2216 15.30179152120631","mean_motion":15.30179152,"eccentricity":9.03e-5,"inclination_deg":53.1612,"raan_deg":286.5033,"arg_perigee_deg":153.883,"mean_anomaly_deg":206.2216,"bstar":0.0001405,"rev_number":12063,"period_min":94.106627849286,"perigee_km":474.65845518324,"apogee_km":475.89618180916,"semimajor_km":6853.4143184962,"source":"CELESTRAK","updated_at":"2026-05-25T13:38:18.947330Z"}}